Regional Weather Roundup
Issued by NWS Northern Indiana

Home | Current Version | Previous Version | Graphics & Text | Print | Product List | Glossary On
Versions: 1 2 3 4 5 6 7 8 9 10 11 12 13 14 15 16 17 18 19 20 21 22 23 24 25 26 27 28 29 30 31 32 33 34 35 36 37 38 39 40 41 42 43 44 45 46 47 48 49 50
000
ASUS43 KIWX 230910
RWRIWX

KIWX WEATHER ROUNDUP
NATIONAL WEATHER SERVICE NORTHERN INDIANA
500 AM EDT SAT AUG 23 2014

NOTE: "FAIR" INDICATES FEW OR NO CLOUDS BELOW 12,000 FEET WITH NO
SIGNIFICANT WEATHER AND/OR OBSTRUCTIONS TO VISIBILITY.

* THESE STATIONS ARE NOT UNDER NWS QUALITY CONTROL. THEY ALSO MAY NOT
  REPORT WEATHER SUCH AS PRECIPITATION OR FOG.

INZ001>027-231000-
NORTHERN INDIANA

CITY           SKY/WX    TMP DP  RH WIND       PRES   REMARKS
GARY*          PTCLDY    71  70  96 CALM      29.98S FOG
VALPARAISO     PTCLDY    70  68  93 CALM      29.99R
MICHIGAN CITY* FOG       68  68 100 CALM      29.98S VSB 1/2
LAPORTE*       PTCLDY    67  67 100 CALM      29.99S FOG
KNOX*            N/A     66  64  94 CALM      29.98R VSB<1/4
SOUTH BEND     CLOUDY    71  69  93 CALM      29.99R FOG
GOSHEN         FOG       73  71  93 CALM      29.98S VSB 1/2
MONTICELLO*    FOG       68  68 100 CALM      29.97S VSB 1/2
LOGANSPORT*    FOG       66  64  94 CALM      29.99R VSB 1/4
ROCHESTER*     PTCLDY    70  70 100 CALM      30.00R
WARSAW*        FOG       70  70 100 CALM      29.98S VSB 1/4
ANGOLA*        MOCLDY    72  70  94 E6        30.00S
FORT WAYNE     PTCLDY    69  68  96 E5        29.98S
HUNTINGTON*    FOG       69  69 100 CALM      29.97S VSB 1
PERU/GRISSOM   CLEAR     70 N/A N/A CALM      29.98R FOG
MARION*        FOG       66  66  98 CALM      29.99S VSB 3/4

$$
INZ028>050-231000-
CENTRAL INDIANA

CITY           SKY/WX    TMP DP  RH WIND       PRES   REMARKS
LAFAYETTE      PTCLDY    68  68 100 SW3       29.97R FOG
KOKOMO*        MOCLDY    70  66  88 CALM      29.98S VSB 1/2
MUNCIE*        FOG       69  67  93 CALM      29.98F VSB 3/4
INDIANAPOLIS   CLEAR     71  69  93 CALM      29.97S

$$
MIZ043>046-050>051-056>058-064>065-071>073-077>080-231000-
SOUTHWEST LOWER MICHIGAN

CITY           SKY/WX    TMP DP  RH WIND       PRES   REMARKS
BATTLE CREEK   MOCLDY    72  68  87 E5        30.01S
BENTON HARBOR  PTCLDY    70  69  97 CALM      29.98R FOG
COLDWATER*     MOCLDY    72  70  95 E3        30.00S FOG
HILLSDALE*     CLOUDY    68  68 100 CALM      30.02S
HOLLAND        CLEAR     70  67  90 E3        30.00F
GRAND RAPIDS   PTCLDY    68  68 100 NE6       30.01F
KALAMAZOO      PTCLDY    69  68  96 NE3       30.00S FOG
STURGIS*       CLEAR     70  70 100 NE3       29.99S FOG
THREE RIVERS*    N/A     72  71  98 NE3       30.00R FOG

$$
OHZ001>008-015>018-024>025-231000-
NORTHWEST OHIO

CITY           SKY/WX    TMP DP  RH WIND       PRES   REMARKS
WAUSEON*       CLOUDY    68  68 100 NE5       30.01S
DEFIANCE       PTCLDY    71  68  90 NE5       29.99S FOG
FINDLAY        CLEAR     70  68  93 NE6       29.99S FOG
TOLEDO EXPRESS MOCLDY    69  67  93 NE5       30.00R
TOLEDO METCALF CLOUDY    71  66  84 NE5       30.01R
LIMA           MOCLDY    71  68  90 CALM      29.99S FOG

$$
&&



USA.gov is the U.S. government's official web portal to all federal, state and local government web resources and services.